Piet Retief Airport

Jump to: basic info | weather | runways | comments

Related pages: nearby airports | nearby navaids | notams | map

Basic information (top)

Codes: FAPF
Location: lon -26.996901, lat 30.840799, elev 4,423 ft / 1,348 m msl
Status: small_airport

Weather (top)

Current conditions for Nhlangano Airport 21nm (40km) ESE (rec'd 2014/07/26 07:00Z):

FDNH 260700Z AUTO 00000KT //// // ////// ///// Q////

Airport forecast for Matsapha Airport 38nm (70km) NE (rec'd 2014/07/18 09:00Z):

TAF FDMS 180900Z 1809/1818 34010KT CAVOK

Runways (top)

15/33: 4,498 ft (1,371 m) — surface unknown — not lighted

Latest comments (top)

infor: i want to be a pilot,and i want more ... [read]

More... (top)

See also NOTAMs and nearby airports and navaids, or visit the Piet Retief Airport page at the main OurAirports website..